Location: Moscow Pond
(43.6842°N, 73.2366°W)
Time: 01:37:18
(UTC+00:00)

Cosmos 2344 - Pass Details

Date: 08 November 2025
Orbit: 1197 x 3044 km, 63.3° (Epoch: 04 December)

Event Time Altitude Azimuth Distance (km) Brightness Sun altitude
Rises 00:35:18 0° 322° (NW) 4,175 6.9 -32.7°
Reaches altitude 10° 00:38:04 10° 330° (NNW) 3,291 6.1 -33.2°
Enters shadow 00:44:03 39° 19° (NNE) 2,057 4.5 -34.3°
